Tracking 27122 objects as of 24-Mar-2023
HD Live streaming from Space Station
objects crossing your sky now

NINGXIA-1 4

Track NINGXIA-1 4 now!
10-day predictions


NORAD ID: 44782
Int'l Code: 2019-076D
Perigee: 884.4 km
Apogee: 905.2 km
Inclination: 45.0 °
Period: 102.7 minutes
Semi major axis: 7265 km
RCS: Unknown
Launch date: November 13, 2019
Source: People's Republic of China (PRC)
Launch site: Taiyaun Space Center, China (TSC)
Your satellite tracking list
Your tracking list is empty




NASA's NSSDC Master Catalog

Two Line Element Set (TLE):
1 44782U 19076D   23083.20413011  .00000360  00000-0  31988-3 0  9997
2 44782  45.0089  55.9531 0014299 297.9483  61.9911 14.01771624172143
Source of the keplerian elements: AFSPC